Location: Banios
(43.0451°N, 0.2335°E)
Time: 03:20:33
(UTC+00:00)

YAOGAN 6 - Pass Details

Date: 25 January 2021
Orbit: 465 x 502 km, 97.0° (Epoch: 26 February)

Event Time Altitude Azimuth Distance (km) Brightness Sun altitude
Rises 05:29:27 0° 17° (NNE) 2,610 6.4 -20.3°
Reaches altitude 10° 05:31:36 10° 23° (NNE) 1,721 5.5 -19.9°
Maximum altitude 05:35:12 49° 99° (E) 653 3.6 -19.3°
Drops below altitude 10° 05:38:47 10° 175° (S) 1,703 5.5 -18.6°
Sets 05:40:54 0° 181° (S) 2,578 6.4 -18.2°
